This is the latest recevied weather packets stored in our database for station/object IR4UCA-3. If no packets are shown the sender has not sent any weather packets the latest 1 day(s).
| Time | Temp. | Humidity | Pressure | Rain* | Wind** | Luminosity | Snow |
|---|---|---|---|---|---|---|---|
| 1778071528 | 18.33° C | 87% | 1009.1 hPa | 0.25 mm | - | - | - |
| 1778071404 | 18.33° C | 87% | 1008.9 hPa | 0.51 mm | - | - | - |
| 1778071162 | 18.33° C | 86% | 1008.9 hPa | 0.51 mm | - | - | - |
| 1778070557 | 18.33° C | 87% | 1009.1 hPa | 0.51 mm | - | - | - |
| 1778070434 | 18.33° C | 88% | 1008.9 hPa | 0.51 mm | - | - | - |
| 1778070319 | 18.33° C | 88% | 1008.9 hPa | 0.51 mm | - | - | - |
| 1778070074 | 18.33° C | 89% | 1008.8 hPa | 0.51 mm | - | - | - |
| 1778069722 | 18.33° C | 89% | 1008.8 hPa | 0.51 mm | - | - | - |
| 1778069593 | 18.33° C | 89% | 1008.9 hPa | 0.51 mm | - | - | - |
| 1778069493 | 18.33° C | 89% | 1008.8 hPa | 0.51 mm | - | - | - |
| 1778069351 | 18.33° C | 89% | 1008.9 hPa | 0.25 mm | - | - | - |
| 1778069232 | 18.33° C | 89% | 1009.1 hPa | 0.25 mm | - | - | - |
| 1778068988 | 18.33° C | 88% | 1009 hPa | 0.25 mm | - | - | - |
| 1778068748 | 18.33° C | 88% | 1009 hPa | 0.25 mm | - | - | - |
| 1778068515 | 18.89° C | 88% | 1009.1 hPa | 0.25 mm | - | - | - |
| 1778068031 | 18.89° C | 84% | 1009 hPa | 0.25 mm | - | - | - |
| 1778067791 | 19.44° C | 79% | 1008.9 hPa | 0 mm | - | - | - |
| 1778067551 | 19.44° C | 77% | 1008.8 hPa | 0 mm | - | - | - |
| 1778067433 | 19.44° C | 77% | 1008.7 hPa | 0 mm | - | - | - |
| 1778067077 | 19.44° C | 76% | 1008.7 hPa | 0 mm | - | - | - |
| 1778066588 | 19.44° C | 76% | 1008.8 hPa | 0 mm | - | - | - |
| 1778066349 | 20° C | 76% | 1008.7 hPa | 0 mm | - | - | - |
| 1778065628 | 20° C | 75% | 1008.6 hPa | 0 mm | - | - | - |
| 1778065389 | 19.44° C | 75% | 1008.6 hPa | 0 mm | - | - | - |
| 1778064672 | 19.44° C | 76% | 1008.7 hPa | 0 mm | - | - | - |
* Rain latest hour (hover to see other rain measurements)
** Current wind speed in m/s (hover to see current wind gust speed)